Location: Macksville High School
(37.9611°N, 99.9654°W)
Time: 23:32:38
(UTC+00:00)

Cosmos 2034 Rocket - Pass Details

Date: 17 January 2021
Orbit: 957 x 1001 km, 82.9° (Epoch: 07 March)

Event Time Altitude Azimuth Distance (km) Brightness Sun altitude
Rises 12:35:13 0° 186° (S) 3,701 7.1 -15.3°
Reaches altitude 10° 12:37:44 10° 187° (S) 2,758 6.5 -14.9°
Maximum altitude 12:44:05 86° 276° (W) 1,009 4.0 -13.6°
Drops below altitude 10° 12:50:30 10° 6° (N) 2,779 6.3 -12.4°
Sets 12:53:03 0° 7° (N) 3,730 6.9 -12.0°
